sat.trackr.live / text

‹ back to catalog

AETHER-2

NORAD 58299 · 2023-174AV

PAYLOAD ACTIVE UNKNOWN

§ Identity

Operator
Country
CA
Launch date
2023-11-11
Launch site
AFWTR
Launch vehicle
Mass (kg)
RCS (m²)

External: N2YO · Heavens-Above · Gunter

§ Orbital elements

Epoch: 2026-09-21T19:18:42.948864Z

Period
93.78 min
Inclination
97.3855°
Eccentricity
0.0007452
Mean motion
15.35538521 rev/d
Perigee alt
454.2 km
Apogee alt
464.4 km
Semi-major
6,837.5 km
B*
1.2569e-4
RAAN
348.2705°
Arg perigee
152.9967°
Mean anomaly
207.1666°
Rev number
16,005

§ Raw data

AETHER-21 58299U 23174AV  26264.80466376  .00004262  00000+0  12569-3 0  99992 58299  97.3855 348.2705 0007452 152.9967 207.1666 15.35538521160056

JSON: /api/v1/satellites/58299 · /tle

For live sub-satellite position, see the globe view (requires WebGL).

§ Visibility from observer

Set your observer location to see the next 7 days of passes ≥ 10°. The values pass through the URL so the page stays shareable.

No JS? Fill the form by hand. The geolocation button needs JavaScript.